[[{"header":{"parameterUnit":"m.s-1","parameterCategory":1,"la1":30.2991,"la2":30.254,"lo1":-89.0895,"lo2":-89.0444,"dy":0.0017,"dx":0.0017,"nx":28,"ny":28,"refTime":"2024-04-16T03:00:00:Z","depth":0,"parameterNumber":2,"parameterNumberName":"U-component_of_WINDS"},"data":[0,0,0,0,0,0,0,0,0,0,0,0,0,0,0,0,0,0,0,0,0,0,0,0,0,0,0,0,0,0,0,0,0,0,0,0,0,0,0,0,0,0,0,0,0,0,0,0,0,0,0,0,0,0,0,0,0,0,-2.5073,-2.5075,0,-2.5186,-2.5187,-2.5188,-2.522,-2.5219,-2.5219,-2.5218,-2.5337,-2.534,-2.5344,0,0,0,0,0,0,0,0,0,0,0,0,0,-2.489,-2.4893,-2.5073,-2.5075,-2.5076,-2.5186,-2.5187,-2.5189,-2.522,-2.5219,-2.5219,-2.5218,-2.5335,-2.534,-2.5344,0,0,0,0,0,0,0,0,0,0,0,0,0,-2.4983,-2.4894,-2.5073,-2.5105,-2.5109,-2.5185,-2.5187,-2.5189,-2.522,-2.5219,-2.5218,-2.5218,-2.5334,-2.5339,-2.5345,-2.5399,0,0,-2.5362,-2.5365,0,0,0,0,0,0,0,0,-2.4977,-2.4989,-2.5099,-2.5103,-2.5107,-2.5188,-2.5166,-2.526,-2.5221,-2.5178,-2.5218,-2.5217,-2.5288,-2.5298,-2.5321,-2.5404,-2.5409,-2.5363,-2.5366,-2.5369,-2.537,0,0,0,0,0,0,0,-2.4971,-2.4985,-2.5118,-2.51,-2.5106,-2.5115,-2.5127,-2.5184,-2.5237,-2.5182,-2.5184,-2.5197,-2.529,-2.5315,-2.5324,-2.5411,-2.5363,-2.5368,-2.5371,-2.5373,-2.5545,-2.5546,0,0,0,0,0,0,-2.4958,-2.4979,-2.5114,-2.5121,-2.5039,-2.5119,-2.5133,-2.5163,-2.5237,-2.5247,-2.5198,-2.5198,-2.5306,-2.5317,-2.5328,-2.5395,-2.5368,-2.5374,-2.5377,-2.5544,-2.5545,-2.5546,0,0,0,0,0,0,-2.4954,-2.497,-2.511,-2.5051,-2.5069,-2.5123,-2.5157,-2.5166,-2.5191,-2.5249,-2.5259,-2.5213,-2.5306,-2.532,-2.5381,-2.54,-2.5376,-2.5381,-2.5542,-2.5544,-2.5546,-2.553,0,0,0,0,0,0,-2.4949,-2.4968,-2.4988,-2.5051,-2.5072,-2.5159,-2.5158,-2.5169,-2.52,-2.5201,-2.5266,-2.5276,-2.5306,-2.5372,-2.5386,-2.5407,-2.5386,-2.5541,-2.5543,-2.5545,-2.5529,-2.5531,-2.5533,0,0,0,0,0,-2.4942,-2.498,-2.4989,-2.5005,-2.5098,-2.516,-2.5173,-2.5206,-2.5201,-2.5222,-2.526,-2.5273,-2.5396,-2.5378,-2.5394,-2.5417,-2.554,-2.5542,-2.5545,-2.5529,-2.5531,-2.5533,0,0,0,0,0,0,-2.492,-2.4989,-2.5,-2.5059,-2.5103,-2.5165,-2.5193,-2.5208,-2.5255,-2.5255,-2.5296,-2.531,-2.5367,-2.5399,-2.5378,-2.5473,-2.5468,-2.5474,-2.545,-2.5453,-2.5455,-2.5445,-2.539,0,0,0,0,0,-2.4921,-2.4965,-2.5024,-2.507,-2.5092,-2.5139,-2.5167,-2.5189,-2.5237,-2.5256,-2.5298,-2.5345,-2.5394,-2.5426,-2.5474,-2.5535,-2.5549,-2.5559,-2.5561,-2.5562,-2.5566,-2.56,-2.5605,-2.5555,-2.5555,-2.5555,0,0,-2.4926,-2.4969,-2.4994,-2.5067,-2.5104,-2.5149,-2.5154,-2.5202,-2.5235,-2.5264,-2.5323,-2.5355,-2.5411,-2.5471,-2.55,-2.5499,-2.5583,-2.5565,-2.5566,-2.557,-2.5604,-2.5608,-2.5612,-2.5557,-2.5557,-2.5556,0,0,-2.4956,-2.4993,-2.5036,-2.5073,-2.5128,-2.5159,-2.5169,-2.523,-2.5252,-2.5312,-2.5334,-2.5376,-2.546,-2.5498,-2.5529,-2.5574,-2.5589,-2.559,-2.5599,-2.5632,-2.5635,-2.5639,-2.5655,-2.566,-2.5594,-2.5594,-2.5594,0,-2.4954,-2.5021,-2.5056,-2.5102,-2.5134,-2.5161,-2.5205,-2.524,-2.5309,-2.533,-2.5328,-2.5434,-2.5473,-2.5543,-2.5554,-2.5578,-2.5592,-2.5581,-2.5632,-2.5636,-2.564,-2.5655,-2.5661,-2.5594,-2.5594,-2.5594,-2.5594,0,-2.5016,-2.5063,-2.5091,-2.5155,-2.5191,-2.5236,-2.5278,-2.531,-2.5329,-2.5361,-2.5422,-2.547,-2.5529,-2.5547,-2.5568,-2.562,-2.5618,-2.5624,-2.5619,-2.5643,-2.5659,-2.5665,-2.5593,-2.5593,-2.5593,-2.5593,0,0,-2.5034,-2.5117,-2.5127,-2.5156,-2.522,-2.5257,-2.5304,-2.536,-2.5387,-2.5434,-2.5474,-2.5545,-2.5551,-2.5585,-2.561,-2.5639,-2.5672,-2.5642,-2.5643,-2.5644,-2.5733,-2.5727,-2.5733,-2.5682,-2.5684,-2.5685,-2.5727,0,-2.5071,-2.5154,-2.5187,-2.5254,-2.5298,-2.5325,-2.5366,-2.541,-2.5441,-2.5484,-2.5519,-2.5568,-2.5572,-2.5593,-2.5623,-2.5661,-2.569,-2.5659,-2.5721,-2.5722,-2.5704,-2.5741,-2.5735,-2.5773,-2.5734,-2.5735,-2.5736,0,-2.5125,-2.5171,-2.5243,-2.5301,-2.5321,-2.5356,-2.5411,-2.5451,-2.5502,-2.5523,-2.5562,-2.5585,-2.5636,-2.563,-2.5701,-2.5679,-2.5707,-2.573,-2.5732,-2.5738,-2.5729,-2.5747,-2.5786,-2.5791,-2.5745,-2.5745,-2.5744,0,-2.5129,-2.521,-2.5263,-2.5287,-2.5357,-2.5382,-2.5412,-2.5462,-2.5494,-2.5543,-2.5564,-2.5618,-2.5647,-2.5689,-2.5727,-2.5719,-2.5795,-2.5791,-2.5814,-2.5812,-2.5827,-2.5825,-2.587,-2.5847,-2.5847,-2.5847,-2.5847,0,-2.5167,-2.5209,-2.5265,-2.5298,-2.5346,-2.5385,-2.5432,-2.5465,-2.551,-2.555,-2.5578,-2.5615,-2.5664,-2.5708,-2.5738,-2.5792,-2.5806,-2.5824,-2.5831,-2.5821,-2.5818,-2.5838,-2.5836,-2.5848,-2.5848,-2.5848,-2.5848,0,-2.5179,-2.5218,-2.5277,-2.5338,-2.5355,-2.5388,-2.5441,-2.5474,-2.5507,-2.5557,-2.5572,-2.5623,-2.5677,-2.5719,-2.5789,-2.5809,-2.5866,-2.5875,-2.5848,-2.5851,-2.5871,-2.5868,-2.5929,-2.5938,-2.591,-2.591,-2.591,0,-2.5199,-2.5232,-2.5296,-2.5324,-2.5354,-2.5399,-2.5432,-2.5472,-2.5505,-2.5566,-2.5592,-2.5647,-2.5692,-2.5776,-2.5821,-2.5875,-2.5885,-2.5902,-2.5893,-2.5881,-2.5884,-2.588,-2.5884,-2.5903,-2.5903,-2.5903,-2.5903,0,-2.523,-2.5248,-2.5293,-2.5345,-2.5382,-2.5425,-2.5469,-2.5491,-2.5539,-2.5575,-2.5629,-2.5664,-2.5735,-2.5789,-2.5848,-2.5881,-2.59,-2.5906,-2.5914,-2.5902,-2.5885,-2.5893,-2.5849,-2.5904,-2.5904,-2.5904,-2.5904,-2.5904,-2.5247,-2.5277,-2.5327,-2.5376,-2.5413,-2.5453,-2.5487,-2.5524,-2.5569,-2.5628,-2.565,-2.5706,-2.5757,-2.5838,-2.5871,-2.5916,-2.5918,-2.5929,-2.5932,-2.5934,-2.5932,-2.5879,-2.5927,-2.5927,-2.5927,-2.5927,-2.5927,0,-2.5279,-2.5312,-2.5357,-2.5416,-2.5455,-2.5469,-2.5519,-2.555,-2.5598,-2.5644,-2.5688,-2.5751,-2.5804,-2.5853,-2.5908,-2.5935,-2.5945,-2.5948,-2.5946,-2.5953,-2.5928,-2.5915,-2.5939,-2.5939,-2.5939,-2.5939,-2.5939,-2.5939,-2.53,-2.5351,-2.5375,-2.5446,-2.548,-2.5533,-2.556,-2.5598,-2.5635,-2.5702,-2.5746,-2.5777,-2.5825,-2.5884,-2.5934,-2.5947,-2.5966,-2.5966,-2.5982,-2.5957,-2.5955,-2.5953,-2.5941,-2.5971,-2.5971,-2.6004,-2.6004,-2.6004]},{"header":{"parameterUnit":"m.s-1","parameterCategory":1,"la1":30.2991,"la2":30.254,"lo1":-89.0895,"lo2":-89.0444,"dy":0.0017,"dx":0.0017,"nx":28,"ny":28,"refTime":"2024-04-16T03:00:00:Z","depth":0,"parameterNumber":3,"parameterNumberName":"V-component_of_WINDS"},"data":[0,0,0,0,0,0,0,0,0,0,0,0,0,0,0,0,0,0,0,0,0,0,0,0,0,0,0,0,0,0,0,0,0,0,0,0,0,0,0,0,0,0,0,0,0,0,0,0,0,0,0,0,0,0,0,0,0,0,3.1969,3.1969,0,3.1962,3.1962,3.1962,3.1936,3.1936,3.1935,3.1935,3.1927,3.1928,3.1928,0,0,0,0,0,0,0,0,0,0,0,0,0,3.1963,3.1963,3.1969,3.1969,3.1969,3.1962,3.1962,3.1962,3.1936,3.1936,3.1935,3.1934,3.1927,3.1928,3.1928,0,0,0,0,0,0,0,0,0,0,0,0,0,3.1962,3.1963,3.1969,3.1956,3.1954,3.1962,3.1962,3.1961,3.1937,3.1936,3.1935,3.1934,3.1927,3.1928,3.1928,3.1948,0,0,3.193,3.193,0,0,0,0,0,0,0,0,3.1962,3.1962,3.1958,3.1957,3.1955,3.1949,3.1957,3.1957,3.1937,3.1943,3.1935,3.1934,3.1935,3.1935,3.1936,3.1948,3.1948,3.193,3.193,3.193,3.193,0,0,0,0,0,0,0,3.1962,3.1962,3.1966,3.1958,3.1956,3.195,3.1949,3.1957,3.1944,3.1943,3.1941,3.194,3.1935,3.1935,3.1935,3.1948,3.193,3.193,3.1931,3.1931,3.1978,3.1978,0,0,0,0,0,0,3.1964,3.1962,3.1966,3.1966,3.1956,3.1951,3.195,3.1952,3.1944,3.1942,3.1941,3.1939,3.1935,3.1935,3.1935,3.1959,3.193,3.1931,3.1931,3.1977,3.1978,3.1979,0,0,0,0,0,0,3.1964,3.1964,3.1967,3.1964,3.1963,3.1952,3.1955,3.1952,3.1953,3.1943,3.1941,3.1944,3.1934,3.1934,3.1946,3.1958,3.1931,3.1932,3.1975,3.1977,3.1978,3.2007,0,0,0,0,0,0,3.1964,3.1964,3.1972,3.1964,3.1964,3.1977,3.1955,3.1953,3.1954,3.1951,3.1945,3.1943,3.1933,3.1945,3.1946,3.1958,3.1932,3.1974,3.1976,3.1978,3.2004,3.2009,3.2012,0,0,0,0,0,3.1963,3.198,3.1972,3.1973,3.1972,3.1978,3.1978,3.1966,3.1955,3.1962,3.1956,3.1943,3.1957,3.1946,3.1947,3.196,3.1973,3.1976,3.1978,3.2003,3.2008,3.2012,0,0,0,0,0,0,3.1989,3.1978,3.197,3.1984,3.1982,3.1974,3.1983,3.1972,3.1973,3.1971,3.1957,3.1955,3.1969,3.1966,3.1954,3.198,3.1963,3.1965,3.1982,3.1987,3.199,3.1991,3.1932,0,0,0,0,0,3.1996,3.2001,3.1992,3.2005,3.2005,3.1994,3.1996,3.1987,3.1985,3.1984,3.1978,3.1977,3.198,3.1983,3.1986,3.2004,3.2003,3.2013,3.2017,3.2021,3.2023,3.2033,3.2038,3.1986,3.1986,3.1986,0,0,3.2012,3.2006,3.201,3.201,3.2008,3.2014,3.1993,3.2,3.2005,3.1985,3.1995,3.1991,3.1989,3.2003,3.201,3.2001,3.2037,3.2023,3.2026,3.2027,3.2036,3.2041,3.2045,3.1987,3.1987,3.1987,0,0,3.2043,3.2039,3.205,3.2048,3.2045,3.2037,3.204,3.2033,3.203,3.204,3.2026,3.2031,3.2038,3.2037,3.2037,3.2069,3.2057,3.207,3.2091,3.2101,3.2105,3.2109,3.2121,3.2126,3.2072,3.2072,3.2073,0,3.2062,3.207,3.2057,3.2066,3.2066,3.2049,3.206,3.2059,3.2057,3.2058,3.2048,3.2057,3.2054,3.2069,3.2077,3.2077,3.2081,3.2071,3.2106,3.2109,3.2112,3.2124,3.2129,3.2074,3.2074,3.2074,3.2074,0,3.2095,3.2101,3.211,3.2109,3.2111,3.2121,3.211,3.2114,3.2105,3.2099,3.211,3.2106,3.2108,3.2111,3.2102,3.2125,3.212,3.2108,3.2091,3.2119,3.213,3.2134,3.2076,3.2076,3.2075,3.2075,0,0,3.2141,3.2133,3.2137,3.2136,3.2132,3.2136,3.2146,3.2148,3.2152,3.2151,3.216,3.2166,3.2156,3.2156,3.2147,3.2156,3.2183,3.2143,3.2143,3.2152,3.2209,3.2218,3.2223,3.2175,3.2176,3.2176,3.2209,0,3.2171,3.2187,3.2176,3.2194,3.22,3.2184,3.2192,3.2191,3.2185,3.219,3.2184,3.219,3.2175,3.2175,3.2183,3.2178,3.2194,3.2175,3.2183,3.2184,3.2185,3.2229,3.2238,3.2269,3.2213,3.2214,3.2214,0,3.2208,3.221,3.2228,3.2223,3.2225,3.2233,3.2235,3.2239,3.2237,3.2233,3.2234,3.2224,3.2233,3.2216,3.223,3.2218,3.222,3.2218,3.2219,3.222,3.2201,3.2231,3.2279,3.2284,3.222,3.222,3.222,0,3.2242,3.2248,3.226,3.226,3.2254,3.226,3.2258,3.2256,3.2258,3.226,3.2261,3.2264,3.2266,3.2268,3.2259,3.2247,3.2274,3.2256,3.2272,3.2272,3.2279,3.2279,3.2328,3.2279,3.2279,3.2279,3.2279,0,3.2277,3.2289,3.2275,3.2283,3.2296,3.2284,3.2298,3.2294,3.2292,3.2299,3.2285,3.2292,3.2279,3.2284,3.2277,3.229,3.2291,3.2288,3.2286,3.229,3.2291,3.2292,3.229,3.228,3.228,3.228,3.228,0,3.2317,3.2308,3.232,3.2314,3.2312,3.2323,3.2318,3.2325,3.2319,3.2328,3.2329,3.232,3.2327,3.2318,3.2323,3.2318,3.2336,3.2331,3.2337,3.2336,3.2352,3.2351,3.2405,3.2412,3.2358,3.2359,3.2359,0,3.234,3.2349,3.2344,3.2348,3.2347,3.2352,3.2355,3.2343,3.2347,3.2346,3.2353,3.2358,3.2362,3.2373,3.2367,3.2371,3.2366,3.2385,3.2367,3.237,3.2368,3.2368,3.2369,3.2389,3.2389,3.239,3.239,0,3.2383,3.2378,3.2382,3.2385,3.2389,3.239,3.2391,3.2395,3.2383,3.2387,3.2394,3.2396,3.2402,3.2408,3.241,3.2409,3.2398,3.2396,3.24,3.2404,3.2408,3.2407,3.2348,3.2395,3.2394,3.2394,3.2394,3.2394,3.2416,3.2424,3.2422,3.2427,3.2426,3.2427,3.2434,3.2429,3.2434,3.2438,3.2431,3.2439,3.2438,3.2441,3.244,3.2447,3.2439,3.2444,3.2446,3.2448,3.2451,3.2406,3.2447,3.2447,3.2447,3.2447,3.2447,0,3.2459,3.2457,3.2462,3.2464,3.2468,3.2457,3.2458,3.2462,3.247,3.2469,3.2473,3.2481,3.2487,3.2481,3.2486,3.2493,3.2488,3.2494,3.2494,3.2494,3.2457,3.2454,3.2498,3.2498,3.2498,3.2498,3.2498,3.2498,3.2482,3.2495,3.249,3.2503,3.2501,3.2509,3.251,3.2512,3.2511,3.2521,3.2525,3.2522,3.252,3.2525,3.2529,3.2528,3.2531,3.2539,3.2536,3.2502,3.2497,3.2492,3.2489,3.254,3.254,3.2572,3.2573,3.2573]}]]